• In Hungary
  • List of Countries
  • For 7 days
  • Water Temperature
  • Satellite Maps
  • Weather Map
  • News
  • Weather Widgets
  • user-avatar
    Login

    Hourly Weather Kartanosovo

    Today, 15 August, Wednesday

    Time Temperature Precipitation Wind Pressure Humidity
    00:00 +16°C° 0 mm 1 mps 752 mmHg 79%
    01:00 +16°C° 0 mm 1 mps 752 mmHg 80%
    02:00 +16°C° 0 mm 2 mps 752 mmHg 82%
    03:00 +16°C° 0 mm 2 mps 752 mmHg 84%
    04:00 +16°C° 0 mm 2 mps 752 mmHg 81%
    05:00 +17°C° 0 mm 2 mps 752 mmHg 79%
    06:00 +17°C° 0 mm 2 mps 752 mmHg 76%
    07:00 +19°C° 0 mm 3 mps 752 mmHg 70%
    08:00 +21°C° 0 mm 4 mps 752 mmHg 63%
    09:00 +23°C° 0 mm 4 mps 752 mmHg 56%
    10:00 +25°C° 0 mm 5 mps 751 mmHg 53%
    11:00 +27°C° 0 mm 5 mps 751 mmHg 49%
    12:00 +28°C° 0 mm 6 mps 751 mmHg 46%
    13:00 +28°C° 0.3 mm 6 mps 750 mmHg 49%
    14:00 +29°C° 0.3 mm 5 mps 750 mmHg 51%
    15:00 +29°C° 0.3 mm 5 mps 750 mmHg 54%
    16:00 +29°C° 0.1 mm 5 mps 749 mmHg 54%
    17:00 +29°C° 0.1 mm 5 mps 749 mmHg 53%
    18:00 +29°C° 0.1 mm 4 mps 749 mmHg 53%
    19:00 +27°C° 0.3 mm 4 mps 749 mmHg 58%
    20:00 +26°C° 0.3 mm 4 mps 749 mmHg 63%
    21:00 +23°C° 0.3 mm 4 mps 749 mmHg 68%
    22:00 +22°C° 0.7 mm 4 mps 749 mmHg 75%
    23:00 +21°C° 0.7 mm 3 mps 749 mmHg 82%

    Tomorrow, 16 August, Thursday

    Time Temperature Precipitation Wind Pressure Humidity
    00:00 +20°C° 0.7 mm 3 mps 749 mmHg 89%
    01:00 +19°C° 0.2 mm 2 mps 749 mmHg 91%
    02:00 +19°C° 0.2 mm 2 mps 749 mmHg 92%
    03:00 +18°C° 0.2 mm 2 mps 749 mmHg 94%
    04:00 +18°C° 0 mm 2 mps 749 mmHg 94%
    05:00 +18°C° 0 mm 2 mps 750 mmHg 94%
    06:00 +18°C° 0 mm 2 mps 750 mmHg 95%
    07:00 +20°C° 0 mm 2 mps 750 mmHg 89%
    08:00 +21°C° 0 mm 2 mps 750 mmHg 84%
    09:00 +23°C° 0 mm 2 mps 750 mmHg 79%
    10:00 +25°C° 0 mm 2 mps 750 mmHg 71%
    11:00 +26°C° 0 mm 2 mps 751 mmHg 63%
    12:00 +27°C° 0 mm 3 mps 751 mmHg 56%
    13:00 +27°C° 0.1 mm 2 mps 751 mmHg 56%
    14:00 +27°C° 0.1 mm 2 mps 751 mmHg 57%
    15:00 +27°C° 0.1 mm 2 mps 751 mmHg 58%
    16:00 +26°C° 0.5 mm 2 mps 751 mmHg 63%
    17:00 +26°C° 0.5 mm 2 mps 751 mmHg 67%
    18:00 +25°C° 0.5 mm 2 mps 751 mmHg 72%
    19:00 +23°C° 0.4 mm 2 mps 751 mmHg 78%
    20:00 +21°C° 0.4 mm 2 mps 751 mmHg 84%
    21:00 +19°C° 0.4 mm 2 mps 752 mmHg 91%
    22:00 +19°C° 0.2 mm 2 mps 752 mmHg 92%
    23:00 +18°C° 0.2 mm 2 mps 752 mmHg 93%

    Day after tomorrow, 17 August, Friday

    Time Temperature Precipitation Wind Pressure Humidity
    00:00 +18°C° 0.2 mm 2 mps 752 mmHg 95%
    01:00 +17°C° 0 mm 2 mps 752 mmHg 95%
    02:00 +17°C° 0 mm 2 mps 753 mmHg 96%
    03:00 +16°C° 0 mm 2 mps 753 mmHg 97%
    04:00 +16°C° 0 mm 2 mps 753 mmHg 96%
    05:00 +16°C° 0 mm 2 mps 753 mmHg 96%
    06:00 +15°C° 0 mm 2 mps 754 mmHg 96%
    07:00 +17°C° 0 mm 3 mps 754 mmHg 90%
    08:00 +18°C° 0 mm 3 mps 754 mmHg 84%
    09:00 +19°C° 0 mm 3 mps 755 mmHg 77%
    10:00 +21°C° 0 mm 4 mps 755 mmHg 69%
    11:00 +22°C° 0 mm 4 mps 755 mmHg 61%
    12:00 +25°C° 0 mm 4 mps 755 mmHg 53%
    13:00 +25°C° 0 mm 4 mps 754 mmHg 50%
    14:00 +26°C° 0 mm 4 mps 754 mmHg 47%
    15:00 +26°C° 0 mm 4 mps 754 mmHg 44%
    16:00 +26°C° 0 mm 3 mps 754 mmHg 46%
    17:00 +25°C° 0 mm 3 mps 754 mmHg 48%
    18:00 +25°C° 0 mm 3 mps 755 mmHg 50%
    19:00 +22°C° 0 mm 3 mps 755 mmHg 56%
    20:00 +20°C° 0 mm 3 mps 755 mmHg 61%
    21:00 +18°C° 0 mm 3 mps 755 mmHg 67%
    22:00 +17°C° 0 mm 2 mps 756 mmHg 70%
    23:00 +16°C° 0 mm 2 mps 756 mmHg 73%

    18 August, Saturday

    Time Temperature Precipitation Wind Pressure Humidity
    00:00 +15°C° 0 mm 2 mps 756 mmHg 76%
    01:00 +15°C° 0 mm 2 mps 756 mmHg 77%
    02:00 +14°C° 0 mm 2 mps 757 mmHg 79%
    03:00 +13°C° 0 mm 2 mps 757 mmHg 80%
    04:00 +13°C° 0 mm 2 mps 757 mmHg 80%
    05:00 +13°C° 0 mm 2 mps 757 mmHg 80%
    06:00 +13°C° 0 mm 2 mps 757 mmHg 81%
    07:00 +15°C° 0 mm 2 mps 758 mmHg 71%
    08:00 +18°C° 0 mm 2 mps 758 mmHg 62%
    09:00 +20°C° 0 mm 2 mps 758 mmHg 53%
    10:00 +21°C° 0 mm 2 mps 758 mmHg 48%
    11:00 +23°C° 0 mm 2 mps 758 mmHg 42%
    12:00 +25°C° 0 mm 3 mps 758 mmHg 37%
    13:00 +25°C° 0 mm 3 mps 758 mmHg 36%
    14:00 +25°C° 0 mm 2 mps 758 mmHg 34%
    15:00 +26°C° 0 mm 2 mps 758 mmHg 33%
    16:00 +25°C° 0 mm 2 mps 757 mmHg 36%
    17:00 +25°C° 0 mm 2 mps 757 mmHg 40%
    18:00 +24°C° 0 mm 2 mps 757 mmHg 43%
    19:00 +21°C° 0 mm 2 mps 757 mmHg 48%
    20:00 +19°C° 0 mm 2 mps 757 mmHg 54%
    21:00 +16°C° 0 mm 2 mps 757 mmHg 59%
    22:00 +16°C° 0 mm 2 mps 758 mmHg 62%
    23:00 +15°C° 0 mm 2 mps 758 mmHg 66%

    19 August, Sunday

    Time Temperature Precipitation Wind Pressure Humidity
    00:00 +14°C° 0 mm 2 mps 758 mmHg 69%
    01:00 +14°C° 0 mm 1 mps 758 mmHg 72%
    02:00 +13°C° 0 mm 1 mps 758 mmHg 75%
    03:00 +13°C° 0 mm 1 mps 758 mmHg 78%
    04:00 +13°C° 0 mm 1 mps 758 mmHg 78%
    05:00 +13°C° 0 mm 1 mps 758 mmHg 79%
    06:00 +13°C° 0 mm 1 mps 758 mmHg 79%
    07:00 +15°C° 0 mm 1 mps 758 mmHg 71%
    08:00 +18°C° 0 mm 1 mps 758 mmHg 62%
    09:00 +21°C° 0 mm 1 mps 758 mmHg 53%
    10:00 +21°C° 0 mm 2 mps 758 mmHg 48%
    11:00 +23°C° 0 mm 2 mps 757 mmHg 42%
    12:00 +25°C° 0 mm 2 mps 757 mmHg 36%
    13:00 +25°C° 0 mm 2 mps 757 mmHg 34%
    14:00 +25°C° 0 mm 2 mps 756 mmHg 33%
    15:00 +26°C° 0 mm 2 mps 756 mmHg 31%
    16:00 +25°C° 0 mm 2 mps 756 mmHg 36%
    17:00 +25°C° 0 mm 2 mps 755 mmHg 40%
    18:00 +24°C° 0 mm 2 mps 755 mmHg 44%
    19:00 +21°C° 0 mm 2 mps 755 mmHg 50%
    20:00 +19°C° 0 mm 2 mps 755 mmHg 56%
    21:00 +18°C° 0 mm 1 mps 755 mmHg 61%
    22:00 +16°C° 0 mm 2 mps 755 mmHg 64%
    23:00 +15°C° 0 mm 2 mps 755 mmHg 66%

    20 August, Monday

    Time Temperature Precipitation Wind Pressure Humidity
    00:00 +15°C° 0 mm 2 mps 755 mmHg 69%
    01:00 +15°C° 0 mm 2 mps 754 mmHg 71%
    02:00 +14°C° 0 mm 2 mps 754 mmHg 73%
    03:00 +14°C° 0 mm 2 mps 754 mmHg 74%
    04:00 +14°C° 0 mm 2 mps 754 mmHg 75%
    05:00 +14°C° 0 mm 2 mps 754 mmHg 76%
    06:00 +14°C° 0 mm 2 mps 754 mmHg 76%
    07:00 +16°C° 0 mm 2 mps 754 mmHg 69%
    08:00 +18°C° 0 mm 3 mps 754 mmHg 62%
    09:00 +20°C° 0 mm 3 mps 754 mmHg 54%
    10:00 +22°C° 0 mm 3 mps 753 mmHg 50%
    11:00 +23°C° 0 mm 4 mps 753 mmHg 45%
    12:00 +26°C° 0 mm 4 mps 753 mmHg 41%
    13:00 +26°C° 0 mm 4 mps 753 mmHg 41%
    14:00 +26°C° 0 mm 4 mps 752 mmHg 41%
    15:00 +27°C° 0 mm 4 mps 752 mmHg 40%
    16:00 +26°C° 0 mm 3 mps 752 mmHg 44%
    17:00 +26°C° 0 mm 3 mps 752 mmHg 47%
    18:00 +25°C° 0 mm 2 mps 751 mmHg 50%
    19:00 +23°C° 0 mm 2 mps 751 mmHg 56%
    20:00 +21°C° 0 mm 2 mps 751 mmHg 61%
    21:00 +19°C° 0 mm 2 mps 751 mmHg 67%
    22:00 +19°C° 0.2 mm 2 mps 751 mmHg 73%
    23:00 +18°C° 0.2 mm 2 mps 751 mmHg 79%
    Show more